Location: Camp Crooked Creek
(37.9149°N, 85.6607°W)
Time: 13:50:54
(UTC-04:00)

Amateur Radio Satellites - All Passes

Search period start: 23 October 2014 13:20
Search period end: 24 October 2014 13:20
Location: Camp Crooked Creek, 37.9149°N, 85.6607°W

Satellite Date Start Highest point End Downlink Frequencies (MHz)
Time Altitude Azimuth
Sapphire 23 Oct 13:31:56 13:36:17 24° 51° (NE) 13:40:37 437.095 MHz 1200 baud AX-25 AFSK
Oscar 19 23 Oct 13:36:08 13:40:24 27° 67° (ENE) 13:44:39 437.125 CW, 437.150 USB
SO-50 23 Oct 13:40:20 13:44:26 36° 114° (ESE) 13:48:38 436.795 FM
AO-27 23 Oct 13:51:13 13:54:16 16° 63° (ENE) 13:57:19 436.795 MHz FM
JAS-1B 23 Oct 13:51:56 13:57:15 34° 68° (ENE) 14:02:17 435.800 - 435.900 CW/SSB
PCSat 23 Oct 13:54:15 13:59:18 38° 56° (NE) 14:04:18 145.825 MHz
ISS 23 Oct 13:58:01 14:01:18 64° 138° (SE) 14:04:37 145.800 FM
Oscar 10/S400 23 Oct 14:07:53 14:27:02 39° 153° (SSE) 14:47:07 145.825 - 145.975 CW/USB, Beacon 145.810 USB
KITSAT 1 23 Oct 14:17:32 14:25:26 56° 304° (NW) 14:33:22 435.175 FM
Oscar 16 23 Oct 14:20:32 14:25:41 75° 75° (ENE) 14:30:51 437.025 USB, Beacon 2401.1428
AO-Echo 23 Oct 14:28:57 14:33:30 42° 71° (ENE) 14:38:13 ?
Uribyol 2 23 Oct 14:37:28 14:42:24 45° 71° (ENE) 14:47:22 436.500 FM
ITAMSAT 1 23 Oct 14:43:03 14:48:01 48° 71° (ENE) 14:53:01 435.822 SSB
Gurwin Techsat 1B 23 Oct 14:54:06 14:58:43 32° 68° (ENE) 15:03:21 435.225 FM
TMSAT-1 23 Oct 15:06:26 15:10:59 30° 68° (ENE) 15:15:34 436.925 FM
UOSAT-12 23 Oct 15:12:46 15:16:44 29° 112° (ESE) 15:20:47 437.025 FM, 437.400 FM
Sapphire 23 Oct 15:14:44 15:19:57 48° 248° (WSW) 15:25:08 437.095 MHz 1200 baud AX-25 AFSK
Oscar 19 23 Oct 15:14:56 15:19:34 33° 263° (W) 15:24:13 437.125 CW, 437.150 USB
SO-50 23 Oct 15:21:24 15:25:04 24° 312° (NW) 15:28:50 436.795 FM
AO-27 23 Oct 15:28:05 15:33:13 62° 259° (WSW) 15:38:24 436.795 MHz FM
ISS 23 Oct 15:35:52 15:38:17 18° 335° (NNW) 15:40:42 145.800 FM
PCSat 23 Oct 15:37:59 15:42:31 28° 252° (WSW) 15:47:02 145.825 MHz
JAS-1B 23 Oct 15:42:45 15:47:58 29° 263° (W) 15:52:52 435.800 - 435.900 CW/SSB
Oscar 16 23 Oct 16:03:55 16:05:32 11° 270° (W) 16:07:08 437.025 USB, Beacon 2401.1428
AO-Echo 23 Oct 16:09:03 16:12:28 19° 267° (W) 16:15:58 ?
Uosat F 23 Oct 16:13:50 16:17:18 19° 64° (ENE) 16:20:47 435.120 FM
Uribyol 2 23 Oct 16:18:17 16:22:03 20° 266° (W) 16:25:51 436.500 FM
KITSAT 1 23 Oct 16:18:33 16:22:49 15° 328° (NNW) 16:27:06 435.175 FM
AO-7 23 Oct 16:24:07 16:31:59 51° 65° (ENE) 16:39:52 29.400 - 29.500 MHz
ITAMSAT 1 23 Oct 16:24:08 16:27:44 19° 267° (W) 16:31:21 435.822 SSB
Gurwin Techsat 1B 23 Oct 16:34:01 16:38:37 30° 264° (W) 16:43:14 435.225 FM
TMSAT-1 23 Oct 16:46:10 16:50:49 31° 264° (W) 16:55:30 436.925 FM
UOSAT-12 23 Oct 16:52:42 16:56:48 30° 309° (NW) 17:00:59 437.025 FM, 437.400 FM
Saudisat 1A 23 Oct 16:54:49 16:58:12 21° 48° (NE) 17:01:34 436.775 MHz
JAS-2 23 Oct 17:13:27 17:17:45 21° 60° (ENE) 17:22:24 435.800 - 435.900 CW/SSB, 435.910 FM
Uosat F 23 Oct 17:50:53 17:55:42 47° 260° (W) 18:00:33 435.120 FM
OPAL 23 Oct 17:52:01 17:54:46 15° 94° (E) 17:57:30 ?
AO-7 23 Oct 18:17:39 18:24:55 34° 262° (W) 18:32:15 29.400 - 29.500 MHz
Hamsat 23 Oct 18:22:00 18:26:00 43° 73° (ENE) 18:29:59 145.90 MHz
Saudisat 1A 23 Oct 18:33:46 18:37:55 41° 245° (WSW) 18:42:03 436.775 MHz
ISS 23 Oct 18:53:05 18:54:06 11° 16° (NNE) 18:55:07 145.800 FM
JAS-2 23 Oct 18:56:28 19:02:07 59° 260° (W) 19:08:35 435.800 - 435.900 CW/SSB, 435.910 FM
SO-67 23 Oct 19:02:14 19:03:30 12° 68° (ENE) 19:04:46 435.3500 MHz FM
OPAL 23 Oct 19:29:07 19:33:58 56° 289° (WNW) 19:38:47 ?
STRAND 1 23 Oct 19:33:24 19:37:01 19° 93° (E) 19:40:36 ?
Hamsat 23 Oct 20:00:00 20:02:08 14° 268° (W) 20:04:16 145.90 MHz
KITSAT 1 23 Oct 20:18:49 20:22:58 15° 31° (NNE) 20:27:07 435.175 FM
ISS 23 Oct 20:28:19 20:31:31 41° 34° (NE) 20:34:41 145.800 FM
HO-68 23 Oct 20:32:16 20:37:47 25° 60° (ENE) 20:43:19 435.675 MHz FM
SO-67 23 Oct 20:32:59 20:36:08 34° 262° (W) 20:39:18 435.3500 MHz FM
AO-40 23 Oct 21:02:25 23:14:43 20° 112° (ESE) 00:23:24 Beacon 2401.320
STRAND 1 23 Oct 21:11:29 21:16:24 46° 289° (WNW) 21:21:17 ?
UKube-1 23 Oct 21:27:20 21:29:46 15° 65° (ENE) 21:32:12 145.840 MHz, 145.915 MHz
FUNcube-1 23 Oct 22:04:34 22:07:04 15° 65° (ENE) 22:09:34 145.950 - 145.970 MHz USB
ISS 23 Oct 22:05:35 22:07:59 19° 230° (SW) 22:10:24 145.800 FM
Oscar 11 23 Oct 22:08:15 22:12:11 35° 72° (ENE) 22:16:08 145.825 FM, Beacon 2401.500 USB
KITSAT 1 23 Oct 22:12:31 22:20:25 55° 55° (NE) 22:28:16 435.175 FM
RS-15 23 Oct 22:13:23 22:22:56 36° 106° (ESE) 22:32:20 29.354 - 29.394 USB, Beacon 29.352 USB
SO-50 23 Oct 22:13:29 22:17:28 25° 49° (NE) 22:21:27 436.795 FM
HO-68 23 Oct 22:17:52 22:24:55 62° 257° (WSW) 22:32:03 435.675 MHz FM
ZACube-1 23 Oct 22:53:31 22:57:57 49° 74° (ENE) 23:02:20 437.345 MHz
UKube-1 23 Oct 23:01:21 23:05:32 47° 260° (W) 23:09:45 145.840 MHz, 145.915 MHz
FUNcube-1 23 Oct 23:38:31 23:43:00 52° 260° (W) 23:47:27 145.950 - 145.970 MHz USB
UOSAT-12 23 Oct 23:44:09 23:47:31 19° 46° (NE) 23:50:49 437.025 FM, 437.400 FM
Oscar 11 23 Oct 23:45:30 23:48:27 18° 266° (W) 23:51:24 145.825 FM, Beacon 2401.500 USB
SO-50 23 Oct 23:53:36 23:58:10 41° 245° (WSW) 00:02:44 436.795 FM
MaSat-1 23 Oct 23:54:14 23:56:55 17° 106° (ESE) 23:59:28 437.345 MHz
KITSAT 1 24 Oct 00:08:32 00:15:24 32° 254° (WSW) 00:22:15 435.175 FM
RS-15 24 Oct 00:23:46 00:34:36 61° 306° (NW) 00:45:26 29.354 - 29.394 USB, Beacon 29.352 USB
ZACube-1 24 Oct 00:32:02 00:34:33 15° 268° (W) 00:37:04 437.345 MHz
UOSAT-12 24 Oct 01:23:23 01:27:59 54° 243° (WSW) 01:32:29 437.025 FM, 437.400 FM
MaSat-1 24 Oct 01:28:28 01:32:22 37° 298° (WNW) 01:35:57 437.345 MHz
Oscar 16 24 Oct 02:34:31 02:38:59 30° 96° (E) 02:43:25 437.025 USB, Beacon 2401.1428
AO-Echo 24 Oct 02:38:45 02:42:13 17° 92° (E) 02:45:39 ?
RS-15 24 Oct 02:42:14 02:49:52 21° 335° (NNW) 02:57:35 29.354 - 29.394 USB, Beacon 29.352 USB
Uribyol 2 24 Oct 02:53:00 02:56:33 18° 93° (E) 03:00:05 436.500 FM
ITAMSAT 1 24 Oct 02:58:37 03:02:21 20° 94° (E) 03:06:04 435.822 SSB
Gurwin Techsat 1B 24 Oct 03:13:23 03:16:04 14° 91° (E) 03:18:45 435.225 FM
JAS-1B 24 Oct 03:25:11 03:31:55 74° 103° (ESE) 03:40:00 435.800 - 435.900 CW/SSB
TMSAT-1 24 Oct 03:25:29 03:27:56 13° 91° (E) 03:30:22 436.925 FM
Oscar 19 24 Oct 03:27:40 03:32:48 83° 284° (WNW) 03:37:54 437.125 CW, 437.150 USB
Oscar 10/S400 24 Oct 03:41:30 04:12:43 12° 253° (WSW) 04:55:02 145.825 - 145.975 CW/USB, Beacon 145.810 USB
AO-27 24 Oct 03:42:54 03:48:03 55° 101° (E) 03:53:09 436.795 MHz FM
Sapphire 24 Oct 04:12:11 04:16:42 28° 108° (ESE) 04:21:15 437.095 MHz 1200 baud AX-25 AFSK
Oscar 16 24 Oct 04:13:51 04:18:14 30° 292° (WNW) 04:22:37 437.025 USB, Beacon 2401.1428
AO-Echo 24 Oct 04:16:04 04:21:15 54° 287° (WNW) 04:26:24 ?
AO-7 24 Oct 04:29:35 04:34:23 16° 91° (E) 04:39:09 29.400 - 29.500 MHz
Uribyol 2 24 Oct 04:31:15 04:36:16 49° 288° (WNW) 04:41:14 436.500 FM
PCSat 24 Oct 04:34:02 04:39:12 49° 112° (ESE) 04:44:25 145.825 MHz
ITAMSAT 1 24 Oct 04:37:04 04:42:02 46° 289° (WNW) 04:46:59 435.822 SSB
Gurwin Techsat 1B 24 Oct 04:51:11 04:56:28 65° 286° (WNW) 05:01:42 435.225 FM
RS-15 24 Oct 05:01:59 05:08:26 17° 13° (NNE) 05:14:58 29.354 - 29.394 USB, Beacon 29.352 USB
TMSAT-1 24 Oct 05:03:02 05:08:18 68° 286° (WNW) 05:13:33 436.925 FM
OPAL 24 Oct 05:04:37 05:08:44 25° 65° (ENE) 05:12:48 ?
JAS-1B 24 Oct 05:17:34 05:22:06 20° 297° (WNW) 05:27:06 435.800 - 435.900 CW/SSB
AO-27 24 Oct 05:23:41 05:27:05 18° 297° (WNW) 05:30:28 436.795 MHz FM
Sapphire 24 Oct 05:54:56 05:59:56 37° 304° (NW) 06:04:58 437.095 MHz 1200 baud AX-25 AFSK
Uosat F 24 Oct 06:00:07 06:05:08 61° 101° (ESE) 06:10:06 435.120 FM
JAS-2 24 Oct 06:07:17 06:13:41 27° 92° (E) 06:20:00 435.800 - 435.900 CW/SSB, 435.910 FM
PCSat 24 Oct 06:18:33 06:22:51 24° 309° (NW) 06:27:11 145.825 MHz
AO-7 24 Oct 06:19:42 06:28:04 90° 108° (ESE) 06:36:26 29.400 - 29.500 MHz
OPAL 24 Oct 06:42:36 06:47:23 38° 260° (W) 06:52:08 ?
STRAND 1 24 Oct 06:47:40 06:51:41 24° 66° (ENE) 06:55:45 ?
RS-15 24 Oct 07:14:46 07:25:08 41° 45° (NE) 07:35:49 29.354 - 29.394 USB, Beacon 29.352 USB
Uosat F 24 Oct 07:40:30 07:43:22 15° 297° (WNW) 07:46:13 435.120 FM
Hamsat 24 Oct 07:44:50 07:49:01 69° 284° (WNW) 07:53:12 145.90 MHz
JAS-2 24 Oct 07:51:21 07:58:59 62° 288° (WNW) 08:06:37 435.800 - 435.900 CW/SSB, 435.910 FM
SO-67 24 Oct 07:58:32 08:00:47 16° 94° (E) 08:03:01 435.3500 MHz FM
PANSAT 24 Oct 08:11:33 08:12:43 11° 163° (SSE) 08:13:52 not established
AO-7 24 Oct 08:14:16 08:19:46 20° 307° (NW) 08:25:16 29.400 - 29.500 MHz
STRAND 1 24 Oct 08:25:54 08:30:38 38° 262° (W) 08:35:25 ?
Saudisat 1A 24 Oct 08:37:58 08:42:20 77° 119° (ESE) 08:46:44 436.775 MHz
RS-15 24 Oct 09:27:02 09:37:59 61° 247° (WSW) 09:49:25 29.354 - 29.394 USB, Beacon 29.352 USB
SO-67 24 Oct 09:30:56 09:33:43 23° 288° (WNW) 09:36:30 435.3500 MHz FM
JAS-2 24 Oct 09:39:52 09:42:31 12° 306° (NW) 09:45:11 435.800 - 435.900 CW/SSB, 435.910 FM
MaSat-1 24 Oct 09:42:18 09:43:03 11° 55° (NE) 09:43:47 437.345 MHz
HO-68 24 Oct 09:48:03 09:54:06 29° 96° (E) 10:00:06 435.675 MHz FM
PANSAT 24 Oct 09:49:26 09:52:12 19° 175° (S) 09:54:58 not established
Saudisat 1A 24 Oct 10:20:18 10:22:26 13° 317° (NW) 10:24:34 436.775 MHz
UKube-1 24 Oct 10:51:21 10:55:16 32° 98° (E) 10:59:10 145.840 MHz, 145.915 MHz
MaSat-1 24 Oct 11:17:01 11:18:38 16° 254° (WSW) 11:20:11 437.345 MHz
PANSAT 24 Oct 11:29:11 11:31:46 17° 188° (S) 11:34:21 not established
FUNcube-1 24 Oct 11:29:47 11:33:37 32° 97° (E) 11:37:21 145.950 - 145.970 MHz USB
Oscar 11 24 Oct 11:33:09 11:37:28 87° 283° (WNW) 11:41:46 145.825 FM, Beacon 2401.500 USB
HO-68 24 Oct 11:35:06 11:42:00 51° 292° (WNW) 11:48:52 435.675 MHz FM
ZACube-1 24 Oct 12:20:53 12:25:05 59° 285° (WNW) 12:29:11 437.345 MHz
UKube-1 24 Oct 12:27:58 12:31:14 21° 293° (WNW) 12:34:30 145.840 MHz, 145.915 MHz
KITSAT 1 24 Oct 12:38:42 12:46:18 47° 110° (ESE) 12:53:54 435.175 FM
Sapphire 24 Oct 13:01:55 13:05:37 18° 47° (NE) 13:09:18 437.095 MHz 1200 baud AX-25 AFSK
Oscar 19 24 Oct 13:06:36 13:09:10 14° 62° (ENE) 13:11:44 437.125 CW, 437.150 USB
FUNcube-1 24 Oct 13:06:46 13:09:45 19° 293° (WNW) 13:12:41 145.950 - 145.970 MHz USB
ISS 24 Oct 13:09:15 13:12:16 33° 134° (SE) 13:15:18 145.800 FM
